Tracking 19969 objects as of 13-Nov-2019
Live streaming from Space Station
objects crossing your sky now
Track the group of recently launched Starlink satellites

DELTA 1 DEB

Track DELTA 1 DEB now!
10-day predictions


NORAD ID: 42563
Int'l Code: 1972-058JW
Perigee: 809.2 km
Apogee: 1,184.0 km
Inclination: 98.8 °
Period: 104.9 minutes
Semi major axis: 7367 km
RCS: Unknown
Launch date: July 23, 1972
Source: United States (US)
Launch site: AIR FORCE WESTERN TEST RANGE (AFWTR)

Note: This is SATELLITE DEBRIS
aabbcc
Your satellite tracking list
Your tracking list is empty




NASA's NSSDC Master Catalog

Two Line Element Set (TLE):
1 42563U 72058JW  19316.71416032 +.00000130 +00000-0 +14662-3 0  9992
2 42563 098.8449 232.0323 0254296 354.0218 005.7914 13.72821264293051
Source of the keplerian elements: AFSPC